SCP
0 0 0 0 0 0 0 0 0 0 0 0 0 0 0 0 0 0 0 0 0 0 0 0 0 0 0 0 0 0 0 0 0 0 0 0 0 0 0 0 0 0 0 0 0
0 0 0 0 0 0 0 0 0 0 0 0 0 0 0 0 0 0 0 0 0 0 0 0 0 0 0 0 0 0 0 0 0 0 0 0 0 0 0 0 0 0 0 0 0
0 0 0 0 0 0 0 0 0 0 0 0 0 0 0 0 0 0 0 0 0 0 0 0 0 0 0 0 0 0 0 0 0 0 0 0 0 0 0 0 0 0 0 0 0
0 0 0 0 0 0 0 0 0 0 0 0 0 0 0 0 0 0 0 0 0 0 0 0 0 0 0 0 0 0 0 0 0 0 0 0 0 0 0 0 0 0 0 0 0
0 0 0 0 0 0 0 0 0 0 0 0 0 0 0 0 0 0 0 0 0 0 0 0 0 0 0 0 0 0 0 0 0 0 0 0 0 0 0 0 0 0 0 0 0
0 0 0 0 0 0 0 0 0 0 0 0 0 0 0 0 0 0 0 0 0 0 0 0 0 0 0 0 0 0 0 0 0 0 0 0 0 0 0 0 0 0 0 0 0
0 0 0 0 0 0 0 0 0 0 0 0 0 0 0 0 0 0 0 0 0 0 0 0 0 0 0 0 0 0 0 0 0 0 0 0 0 0 0 0 0 0 0 0 0
0 0 0 0 0 0 0 0 0 0 0 0 0 0 0 0 0 0 0 0 0 0 0 0 0 0 0 0 0 0 0 0 0 0 0 0 0 0 0 0 0 0 0 0 0
0 0 0 0 0 0 0 0 0 0 0 0 0 0 0 0 0 0 0 0 0 0 0 0 0 0 0 0 0 0 0 0 0 0 0 0 0 0 0 0 0 0 0 0 0
0 0 0 0 0 0 0 0 0 0 0 0 0 0 0 0 0 0 0 0 0 0 0 0 0 0 0 0 0 0 0 0 0 0 0 0 0 0 0 0 0 0 0 0 0
0 0 0 0 0 0 0 0 0 0 0 0 0 0 0 0 0 0 0 0 0 0 0 0 0 0 0 0 0 0 0 0 0 0 0 0 0 0 0 0 0 0 0 0 0
0 0 0 0 0 0 0 0 0 0 0 0 0 0 0 0 0 0 0 0 0 0 0 0 0 0 0 0 0 0 0 0 0 0 0 0 0 0 0 0 0 0 0 0 0
0 0 0 0 0 0 0 0 0 0 0 0 0 0 0 0 0 0 0 0 0 0 0 0 0 0 0 0 0 0 0 0 0 0 0 0 0 0 0 0 0 0 0 0 0
0 0 0 0 0 0 0 0 0 0 0 0 0 0 0 0 0 0 0 0 0 0 0 0 0 0 0 0 0 0 0 0 0 0 0 0 0 0 0 0 0 0 0 0 0
0 0 0 0 0 0 0 0 0 0 0 0 0 0 0 0 0 0 0 0 0 0 0 0 0 0 0 0 0 0 0 0 0 0 0 0 0 0 0 0 0 0 0 0 0
0 0 0 0 0 0 0 0 0 0 0 0 0 0 0 0 0 0 0 0 0 0 0 0 0 0 0 0 0 0 0 0 0 0 0 0 0 0 0 0 0 0 0 0 0
-0 0 0 0 0 0 0 0 0 0 0 0 0 0 0 0 0 0 0 0 0 0 0 0 0 0 0 0 0 0 0 0 0 0 0 0 0 0 0 0 0 0 0 0 0
0 0 0 0 0 0 0 0 0 0 0 0 0 0 0 0 0 0 0 0 0 0 0 0 0 0 0 0 0 0 0 0 0 0 0 0 0 0 0 0 0 -0 -0 -0 0
0 0 0 0 0 0 0 0 0 0 0 0 0 0 0 0 0 0 0 0 0 0 0 0 0 0 0 0 0 0 0 0 0 0 0 0 0 0 0 0 -0 -0 0 0 0
0 0 0 0 0 0 0 0 0 0 0 0 0 0 0 0 0 0 0 0 0 0 0 0 0 0 0 0 0 0 0 0 0 0 0 0 0 0 0 -0 -0 0 -0 -0 0
0 0 0 0 0 0 0 0 0 0 0 0 0 0 0 0 0 0 0 0 0 0 0 0 0 0 0 0 0 0 0 0 0 0 0 0 0 0 0 -0 0 -0 -0 -0 -0
0 0 0 0 0 0 0 0 0 0 0 0 0 0 0 0 0 0 0 0 0 0 0 0 0 0 0 0 0 0 0 0 0 0 0 0 0 0 0 -0 -0 -0 -0 -0 -0
0 0 0 0 0 0 0 0 0 0 0 0 0 0 0 0 0 0 0 0 0 0 0 0 0 0 0 0 0 0 0 0 0 0 0 0 0 0 0 -0 -0 -0 -0 -0 -0
0 0 0 0 0 0 0 0 0 0 0 0 0 0 0 0 0 0 0 0 0 0 0 0 0 0 0 0 0 0 0 0 0 0 0 0 0 -0 -0 0 -0 -0 -0 -0 -0
0 0 0 0 0 0 0 0 0 0 0 0 0 0 0 0 0 0 0 0 0 0 0 0 0 0 0 0 0 0 0 0 0 0 0 0 0 0 -0 0 0 -0 -0 -0 -0
0 0 0 0 0 0 0 0 0 0 0 0 0 0 0 0 0 0 0 0 0 0 0 0 0 0 0 0 0 0 0 0 -0 0 0 0 -0 -0 0 0 0 -0 -0 -0 -0
0 0 0 0 0 0 0 0 0 0 0 0 0 0 0 0 0 0 0 0 0 0 0 0 0 0 0 0 0 0 0 0 0 0 0 0 0 0 0 0 0 0 0 -0 -0
Wind_Speed_500mb
3 3 4 3 5 6 7 10 11 10 11 12 13 14 13 12 13 11 8 4 4 10 7 1 6 9 12 11 10 10 10 16 14 10 3 5 11 6 7 9 13 16 11 14 14
6 6 6 7 8 9 10 11 13 15 15 15 15 14 13 12 11 10 6 3 6 8 5 3 7 12 7 7 7 12 9 10 6 5 5 4 12 8 9 17 19 21 32 26 22
8 8 10 11 11 11 12 13 14 15 17 16 14 13 12 11 8 2 5 2 7 6 3 3 8 11 8 8 10 6 11 3 5 13 9 9 10 11 11 23 31 32 30 35 29
11 11 12 13 13 14 14 14 14 16 16 16 15 13 10 7 6 6 3 7 6 5 3 3 7 8 8 9 8 10 13 12 7 4 5 9 8 10 27 28 7 21 22 27 34
13 13 14 15 15 15 15 16 16 16 16 15 14 11 6 2 7 7 5 5 7 6 4 6 7 7 7 5 6 14 9 9 14 16 19 18 26 22 39 41 36 37 35 33 32
17 18 17 17 16 16 17 17 18 18 19 17 13 9 4 4 9 5 3 6 8 5 4 4 6 8 4 5 9 2 15 23 22 25 19 15 16 8 33 28 38 43 45 37 38
20 22 20 18 16 17 17 18 18 17 18 17 15 9 6 7 11 5 5 5 4 2 2 3 4 5 5 3 4 7 15 19 22 10 11 5 17 32 45 30 18 18 23 31 39
23 25 24 16 19 22 22 20 19 18 16 16 14 8 4 8 7 5 2 1 2 3 3 4 4 4 2 2 4 8 6 10 6 5 1 7 22 7 9 16 26 30 31 28 30
29 28 22 17 18 21 20 18 18 18 15 12 9 4 4 7 7 7 4 1 3 3 3 3 4 3 2 5 9 8 17 13 9 3 2 14 16 5 5 8 18 20 22 24 29
33 24 21 18 17 18 17 16 16 16 13 9 8 5 9 8 7 3 4 3 2 2 2 2 2 5 5 9 10 10 15 12 15 2 8 20 38 40 59 43 52 46 41 35 30
27 24 23 20 19 16 14 11 7 5 6 7 7 4 9 8 5 3 5 3 3 3 6 2 8 12 8 12 11 13 19 29 28 14 13 34 38 38 56 44 47 44 36 32 26
27 28 28 26 24 18 15 9 11 5 3 7 9 9 10 10 6 3 4 7 5 5 4 5 11 5 3 6 11 15 21 27 20 4 8 23 41 48 44 33 22 12 5 7 6
20 28 32 30 28 23 17 14 10 5 3 1 5 6 7 10 7 7 5 8 4 7 9 9 5 6 6 9 11 14 16 18 16 16 10 20 22 11 3 0 4 3 7 9 7
21 24 24 22 22 23 19 16 8 3 2 7 5 4 7 10 5 6 5 4 5 4 6 9 1 2 4 7 6 9 5 10 11 8 10 8 17 18 9 4 3 4 6 7 7
30 31 27 23 13 24 15 16 6 5 6 9 7 10 7 3 10 5 4 2 5 7 5 2 2 1 3 3 2 4 5 5 4 7 9 8 9 8 0 12 14 14 12 8 6
27 22 10 19 22 19 18 13 9 3 13 8 7 8 8 5 4 3 2 4 4 4 2 6 1 2 2 2 3 1 7 10 1 4 8 1 9 7 6 4 9 8 8 9 10
20 11 16 18 18 20 19 16 4 8 3 9 7 8 6 5 5 2 3 3 4 6 1 4 3 4 3 6 2 2 7 6 5 5 5 1 7 13 3 2 2 7 12 15 20
20 13 20 21 15 22 22 4 10 1 7 3 7 9 6 6 4 1 6 7 5 4 3 2 7 3 3 2 3 1 4 6 10 6 6 5 11 3 2 4 11 11 16 25 21
20 18 20 22 23 24 11 5 8 7 9 15 8 7 5 5 4 7 4 2 5 5 5 6 5 5 5 3 2 6 7 4 5 2 5 6 8 3 4 4 3 7 20 27 24
19 18 20 22 26 20 4 6 4 3 9 4 9 2 10 10 9 3 2 4 7 6 8 6 6 2 4 3 4 3 7 4 4 6 7 6 8 7 7 3 5 12 31 29 26
19 9 22 27 25 12 7 7 6 3 3 7 8 8 4 7 6 7 5 5 5 8 5 8 3 5 2 10 7 7 6 7 4 3 5 7 2 3 5 2 12 26 30 31 30
16 4 24 33 10 4 7 10 9 6 2 1 2 7 9 8 7 11 11 5 9 7 7 4 3 8 3 1 5 3 6 10 7 8 1 3 10 4 2 5 17 33 35 33 33
9 7 23 36 10 7 4 2 7 11 10 10 6 4 2 11 7 9 9 6 9 6 7 11 6 7 5 4 3 9 8 4 6 2 12 6 5 3 4 18 26 29 48 47 36
10 6 7 23 5 12 12 10 11 6 6 7 7 9 6 6 7 12 11 6 10 7 9 6 6 10 9 3 6 8 11 15 12 6 6 14 17 17 26 37 43 55 58 46 38
13 7 10 9 9 9 9 15 14 11 6 9 6 9 11 12 9 8 7 9 11 7 5 5 9 5 15 23 18 22 22 21 23 19 16 2 12 26 34 26 33 55 50 44 31
12 8 8 3 5 18 18 13 19 8 16 10 7 15 14 10 5 12 13 9 8 9 10 7 4 1 8 7 9 11 21 25 31 25 17 19 34 4 25 40 32 44 44 48 41
22 14 7 5 5 11 19 16 18 19 17 10 21 13 15 20 9 8 9 6 9 13 18 11 5 1 7 3 11 8 5 7 4 4 9 11 5 15 24 27 35 38 37 47 47
Wind_Direction_500mb
282 308 317 323 323 329 328 330 327 327 326 327 329 329 327 319 308 295 270 247 348 350 355 46 130 148 155 168 163 168 237 248 251 210 269 167 214 202 239 233 208 207 213 201 185
285 297 303 311 314 320 324 325 323 320 317 317 321 323 322 317 307 285 240 152 8 355 352 165 161 158 141 159 173 215 236 244 259 232 255 226 230 209 217 216 231 229 230 225 216
271 279 288 295 303 310 317 324 322 320 315 312 313 314 315 318 310 238 142 33 351 348 335 193 172 164 175 165 191 200 249 282 262 258 264 260 247 221 228 240 228 225 224 229 224
271 277 283 291 298 306 313 321 324 324 320 314 309 307 306 313 297 184 259 318 324 325 309 198 170 164 191 201 187 243 251 252 286 281 247 248 274 249 230 246 192 215 222 227 229
270 278 285 290 297 305 313 315 322 325 325 319 310 300 288 183 225 244 283 307 311 307 268 211 187 174 222 203 199 235 263 249 260 265 253 261 254 265 260 258 254 258 249 240 238
267 271 275 285 296 302 306 311 315 320 323 321 313 306 278 213 208 223 276 306 302 290 268 204 195 200 190 231 230 258 275 273 273 259 241 242 262 227 258 256 250 244 245 244 248
281 279 274 276 286 294 302 304 309 312 314 314 312 311 276 207 207 238 284 296 297 269 201 172 187 191 172 219 292 297 298 290 249 252 239 228 249 237 260 259 252 247 245 240 241
276 281 287 277 284 288 292 296 302 304 303 303 300 296 206 176 200 222 230 168 133 119 158 175 184 196 200 250 250 269 252 278 97 173 110 219 268 254 302 242 252 248 247 242 239
270 281 287 292 292 294 293 288 296 297 292 286 280 223 177 171 173 157 132 250 281 260 220 213 195 166 138 242 267 217 276 252 295 202 226 224 286 305 280 226 263 248 239 240 247
265 272 278 290 301 309 297 289 292 288 278 274 242 176 189 180 173 211 280 265 227 222 249 176 131 215 178 204 265 288 275 258 270 39 242 264 265 278 281 273 267 268 262 253 255
255 261 269 279 291 301 291 288 280 260 229 207 174 178 172 208 212 242 231 180 191 149 242 45 241 236 283 251 299 293 276 276 277 275 288 272 282 282 280 274 269 275 267 260 258
252 263 268 274 277 281 271 242 240 211 235 253 233 218 205 198 164 149 180 146 161 161 176 210 244 51 293 242 243 249 272 278 283 202 254 289 287 279 277 283 273 286 165 137 166
276 276 271 268 262 255 245 234 228 260 241 253 182 176 179 179 163 138 135 134 144 169 208 241 86 316 257 258 252 255 252 281 286 314 256 300 271 277 153 242 153 155 116 98 126
301 311 299 261 242 227 215 212 222 225 251 164 190 175 155 153 99 125 139 157 143 216 202 255 44 270 260 265 234 273 1 290 285 310 292 345 295 279 302 323 145 132 133 97 83
301 305 304 206 213 183 194 188 182 149 278 119 151 150 143 116 132 77 123 92 197 169 202 80 195 65 297 334 244 305 316 279 267 271 311 194 245 267 43 96 90 77 77 67 37
270 291 241 195 191 188 178 166 140 101 243 145 137 162 135 79 64 102 110 111 126 157 219 277 5 353 13 27 307 296 278 237 139 242 250 10 263 301 34 79 106 77 63 32 2
252 248 200 190 210 191 171 150 134 210 38 174 158 166 118 120 103 25 155 149 236 215 57 333 101 92 359 232 141 293 284 289 245 200 284 147 242 295 333 201 267 340 338 325 332
213 206 198 193 190 181 161 118 217 14 197 127 124 116 166 142 112 144 197 186 140 57 106 276 207 176 28 28 12 92 300 285 286 289 325 158 239 167 135 251 276 289 337 340 331
189 191 197 193 183 178 170 182 226 187 145 159 117 155 153 174 173 204 199 118 93 175 228 198 239 128 65 75 297 132 205 27 281 92 269 256 257 259 48 70 50 316 339 339 339
181 189 194 186 175 168 125 260 245 224 126 107 190 233 164 176 175 114 18 94 148 209 247 174 284 95 110 151 77 277 134 201 197 270 265 254 262 195 176 149 314 330 334 337 342
183 190 189 181 163 166 208 223 220 197 174 147 158 140 160 183 148 135 191 138 197 153 203 157 247 134 163 200 171 162 210 213 303 234 280 309 19 213 131 55 332 320 337 339 336
183 232 181 175 162 190 176 182 164 173 128 105 113 140 168 156 155 198 201 245 147 164 178 154 163 257 242 12 298 260 243 203 239 172 195 330 275 59 96 273 297 318 337 343 340
199 177 180 179 194 171 134 124 167 161 196 174 157 93 62 167 202 195 182 127 132 167 179 175 203 288 186 187 189 229 194 201 91 99 212 218 248 147 203 314 337 312 322 325 333
174 178 171 211 217 148 162 190 181 205 178 146 112 109 125 183 251 173 180 152 162 194 191 194 220 239 257 23 103 209 201 207 207 207 182 238 293 295 340 334 329 329 329 326 320
193 204 182 200 205 209 192 168 160 167 207 181 166 200 157 203 202 173 146 141 174 203 216 198 248 216 265 267 258 255 252 204 211 220 233 278 263 310 307 314 312 328 339 343 337
182 173 182 183 199 207 210 203 186 145 165 206 208 194 169 203 246 186 157 186 195 172 188 194 260 179 276 309 220 250 247 243 225 232 252 292 294 340 306 316 317 329 351 0 358
205 191 175 158 162 178 215 189 191 150 196 226 196 155 204 220 174 99 129 77 166 173 194 181 236 313 266 312 293 254 239 189 189 260 213 231 274 323 319 322 318 319 353 355 354
Wind_Speed_850mb
3 3 4 3 5 6 7 10 11 10 11 12 13 14 13 12 13 11 8 4 4 10 7 1 6 9 12 11 10 10 10 16 14 10 3 5 11 6 7 9 13 16 11 14 14
6 6 6 7 8 9 10 11 13 15 15 15 15 14 13 12 11 10 6 3 6 8 5 3 7 12 7 7 7 12 9 10 6 5 5 4 12 8 9 17 19 21 32 26 22
8 8 10 11 11 11 12 13 14 15 17 16 14 13 12 11 8 2 5 2 7 6 3 3 8 11 8 8 10 6 11 3 5 13 9 9 10 11 11 23 31 32 30 35 29
11 11 12 13 13 14 14 14 14 16 16 16 15 13 10 7 6 6 3 7 6 5 3 3 7 8 8 9 8 10 13 12 7 4 5 9 8 10 27 28 7 21 22 27 34
13 13 14 15 15 15 15 16 16 16 16 15 14 11 6 2 7 7 5 5 7 6 4 6 7 7 7 5 6 14 9 9 14 16 19 18 26 22 39 41 36 37 35 33 32
17 18 17 17 16 16 17 17 18 18 19 17 13 9 4 4 9 5 3 6 8 5 4 4 6 8 4 5 9 2 15 23 22 25 19 15 16 8 33 28 38 43 45 37 38
20 22 20 18 16 17 17 18 18 17 18 17 15 9 6 7 11 5 5 5 4 2 2 3 4 5 5 3 4 7 15 19 22 10 11 5 17 32 45 30 18 18 23 31 39
23 25 24 16 19 22 22 20 19 18 16 16 14 8 4 8 7 5 2 1 2 3 3 4 4 4 2 2 4 8 6 10 6 5 1 7 22 7 9 16 26 30 31 28 30
29 28 22 17 18 21 20 18 18 18 15 12 9 4 4 7 7 7 4 1 3 3 3 3 4 3 2 5 9 8 17 13 9 3 2 14 16 5 5 8 18 20 22 24 29
33 24 21 18 17 18 17 16 16 16 13 9 8 5 9 8 7 3 4 3 2 2 2 2 2 5 5 9 10 10 15 12 15 2 8 20 38 40 59 43 52 46 41 35 30
27 24 23 20 19 16 14 11 7 5 6 7 7 4 9 8 5 3 5 3 3 3 6 2 8 12 8 12 11 13 19 29 28 14 13 34 38 38 56 44 47 44 36 32 26
27 28 28 26 24 18 15 9 11 5 3 7 9 9 10 10 6 3 4 7 5 5 4 5 11 5 3 6 11 15 21 27 20 4 8 23 41 48 44 33 22 12 5 7 6
20 28 32 30 28 23 17 14 10 5 3 1 5 6 7 10 7 7 5 8 4 7 9 9 5 6 6 9 11 14 16 18 16 16 10 20 22 11 3 0 4 3 7 9 7
21 24 24 22 22 23 19 16 8 3 2 7 5 4 7 10 5 6 5 4 5 4 6 9 1 2 4 7 6 9 5 10 11 8 10 8 17 18 9 4 3 4 6 7 7
30 31 27 23 13 24 15 16 6 5 6 9 7 10 7 3 10 5 4 2 5 7 5 2 2 1 3 3 2 4 5 5 4 7 9 8 9 8 0 12 14 14 12 8 6
27 22 10 19 22 19 18 13 9 3 13 8 7 8 8 5 4 3 2 4 4 4 2 6 1 2 2 2 3 1 7 10 1 4 8 1 9 7 6 4 9 8 8 9 10
20 11 16 18 18 20 19 16 4 8 3 9 7 8 6 5 5 2 3 3 4 6 1 4 3 4 3 6 2 2 7 6 5 5 5 1 7 13 3 2 2 7 12 15 20
20 13 20 21 15 22 22 4 10 1 7 3 7 9 6 6 4 1 6 7 5 4 3 2 7 3 3 2 3 1 4 6 10 6 6 5 11 3 2 4 11 11 16 25 21
20 18 20 22 23 24 11 5 8 7 9 15 8 7 5 5 4 7 4 2 5 5 5 6 5 5 5 3 2 6 7 4 5 2 5 6 8 3 4 4 3 7 20 27 24
19 18 20 22 26 20 4 6 4 3 9 4 9 2 10 10 9 3 2 4 7 6 8 6 6 2 4 3 4 3 7 4 4 6 7 6 8 7 7 3 5 12 31 29 26
19 9 22 27 25 12 7 7 6 3 3 7 8 8 4 7 6 7 5 5 5 8 5 8 3 5 2 10 7 7 6 7 4 3 5 7 2 3 5 2 12 26 30 31 30
16 4 24 33 10 4 7 10 9 6 2 1 2 7 9 8 7 11 11 5 9 7 7 4 3 8 3 1 5 3 6 10 7 8 1 3 10 4 2 5 17 33 35 33 33
9 7 23 36 10 7 4 2 7 11 10 10 6 4 2 11 7 9 9 6 9 6 7 11 6 7 5 4 3 9 8 4 6 2 12 6 5 3 4 18 26 29 48 47 36
10 6 7 23 5 12 12 10 11 6 6 7 7 9 6 6 7 12 11 6 10 7 9 6 6 10 9 3 6 8 11 15 12 6 6 14 17 17 26 37 43 55 58 46 38
13 7 10 9 9 9 9 15 14 11 6 9 6 9 11 12 9 8 7 9 11 7 5 5 9 5 15 23 18 22 22 21 23 19 16 2 12 26 34 26 33 55 50 44 31
12 8 8 3 5 18 18 13 19 8 16 10 7 15 14 10 5 12 13 9 8 9 10 7 4 1 8 7 9 11 21 25 31 25 17 19 34 4 25 40 32 44 44 48 41
22 14 7 5 5 11 19 16 18 19 17 10 21 13 15 20 9 8 9 6 9 13 18 11 5 1 7 3 11 8 5 7 4 4 9 11 5 15 24 27 35 38 37 47 47
Wind_Direction_850mb
282 308 317 323 323 329 328 330 327 327 326 327 329 329 327 319 308 295 270 247 348 350 355 46 130 148 155 168 163 168 237 248 251 210 269 167 214 202 239 233 208 207 213 201 185
285 297 303 311 314 320 324 325 323 320 317 317 321 323 322 317 307 285 240 152 8 355 352 165 161 158 141 159 173 215 236 244 259 232 255 226 230 209 217 216 231 229 230 225 216
271 279 288 295 303 310 317 324 322 320 315 312 313 314 315 318 310 238 142 33 351 348 335 193 172 164 175 165 191 200 249 282 262 258 264 260 247 221 228 240 228 225 224 229 224
271 277 283 291 298 306 313 321 324 324 320 314 309 307 306 313 297 184 259 318 324 325 309 198 170 164 191 201 187 243 251 252 286 281 247 248 274 249 230 246 192 215 222 227 229
270 278 285 290 297 305 313 315 322 325 325 319 310 300 288 183 225 244 283 307 311 307 268 211 187 174 222 203 199 235 263 249 260 265 253 261 254 265 260 258 254 258 249 240 238
267 271 275 285 296 302 306 311 315 320 323 321 313 306 278 213 208 223 276 306 302 290 268 204 195 200 190 231 230 258 275 273 273 259 241 242 262 227 258 256 250 244 245 244 248
281 279 274 276 286 294 302 304 309 312 314 314 312 311 276 207 207 238 284 296 297 269 201 172 187 191 172 219 292 297 298 290 249 252 239 228 249 237 260 259 252 247 245 240 241
276 281 287 277 284 288 292 296 302 304 303 303 300 296 206 176 200 222 230 168 133 119 158 175 184 196 200 250 250 269 252 278 97 173 110 219 268 254 302 242 252 248 247 242 239
270 281 287 292 292 294 293 288 296 297 292 286 280 223 177 171 173 157 132 250 281 260 220 213 195 166 138 242 267 217 276 252 295 202 226 224 286 305 280 226 263 248 239 240 247
265 272 278 290 301 309 297 289 292 288 278 274 242 176 189 180 173 211 280 265 227 222 249 176 131 215 178 204 265 288 275 258 270 39 242 264 265 278 281 273 267 268 262 253 255
255 261 269 279 291 301 291 288 280 260 229 207 174 178 172 208 212 242 231 180 191 149 242 45 241 236 283 251 299 293 276 276 277 275 288 272 282 282 280 274 269 275 267 260 258
252 263 268 274 277 281 271 242 240 211 235 253 233 218 205 198 164 149 180 146 161 161 176 210 244 51 293 242 243 249 272 278 283 202 254 289 287 279 277 283 273 286 165 137 166
276 276 271 268 262 255 245 234 228 260 241 253 182 176 179 179 163 138 135 134 144 169 208 241 86 316 257 258 252 255 252 281 286 314 256 300 271 277 153 242 153 155 116 98 126
301 311 299 261 242 227 215 212 222 225 251 164 190 175 155 153 99 125 139 157 143 216 202 255 44 270 260 265 234 273 1 290 285 310 292 345 295 279 302 323 145 132 133 97 83
301 305 304 206 213 183 194 188 182 149 278 119 151 150 143 116 132 77 123 92 197 169 202 80 195 65 297 334 244 305 316 279 267 271 311 194 245 267 43 96 90 77 77 67 37
270 291 241 195 191 188 178 166 140 101 243 145 137 162 135 79 64 102 110 111 126 157 219 277 5 353 13 27 307 296 278 237 139 242 250 10 263 301 34 79 106 77 63 32 2
252 248 200 190 210 191 171 150 134 210 38 174 158 166 118 120 103 25 155 149 236 215 57 333 101 92 359 232 141 293 284 289 245 200 284 147 242 295 333 201 267 340 338 325 332
213 206 198 193 190 181 161 118 217 14 197 127 124 116 166 142 112 144 197 186 140 57 106 276 207 176 28 28 12 92 300 285 286 289 325 158 239 167 135 251 276 289 337 340 331
189 191 197 193 183 178 170 182 226 187 145 159 117 155 153 174 173 204 199 118 93 175 228 198 239 128 65 75 297 132 205 27 281 92 269 256 257 259 48 70 50 316 339 339 339
181 189 194 186 175 168 125 260 245 224 126 107 190 233 164 176 175 114 18 94 148 209 247 174 284 95 110 151 77 277 134 201 197 270 265 254 262 195 176 149 314 330 334 337 342
183 190 189 181 163 166 208 223 220 197 174 147 158 140 160 183 148 135 191 138 197 153 203 157 247 134 163 200 171 162 210 213 303 234 280 309 19 213 131 55 332 320 337 339 336
183 232 181 175 162 190 176 182 164 173 128 105 113 140 168 156 155 198 201 245 147 164 178 154 163 257 242 12 298 260 243 203 239 172 195 330 275 59 96 273 297 318 337 343 340
199 177 180 179 194 171 134 124 167 161 196 174 157 93 62 167 202 195 182 127 132 167 179 175 203 288 186 187 189 229 194 201 91 99 212 218 248 147 203 314 337 312 322 325 333
174 178 171 211 217 148 162 190 181 205 178 146 112 109 125 183 251 173 180 152 162 194 191 194 220 239 257 23 103 209 201 207 207 207 182 238 293 295 340 334 329 329 329 326 320
193 204 182 200 205 209 192 168 160 167 207 181 166 200 157 203 202 173 146 141 174 203 216 198 248 216 265 267 258 255 252 204 211 220 233 278 263 310 307 314 312 328 339 343 337
182 173 182 183 199 207 210 203 186 145 165 206 208 194 169 203 246 186 157 186 195 172 188 194 260 179 276 309 220 250 247 243 225 232 252 292 294 340 306 316 317 329 351 0 358
205 191 175 158 162 178 215 189 191 150 196 226 196 155 204 220 174 99 129 77 166 173 194 181 236 313 266 312 293 254 239 189 189 260 213 231 274 323 319 322 318 319 353 355 354